When you browse on this site, cookies collect data to enhance your experience and personalize the content and advertising you see.
Visit our Privacy Policy to learn more. By continuing to use the site, you agree to this use of cookies and data.
  • In Czech Republic
  • List of Countries
  • For 7 days
  • Water Temperature
  • Satellite Maps
  • Weather Map
  • Weather Widgets
  • user-avatar
    Login

    Hourly Weather Manama

    Today, 22 March, Friday

    Time Temperature Precipitation Wind Pressure Humidity
    00:00 +23°C° 0 mm 4 mps 760 mmHg 53%
    01:00 +22°C° 0 mm 4 mps 759 mmHg 54%
    02:00 +22°C° 0 mm 4 mps 759 mmHg 56%
    03:00 +22°C° 0 mm 4 mps 759 mmHg 57%
    04:00 +22°C° 0.1 mm 4 mps 759 mmHg 58%
    05:00 +22°C° 0.1 mm 4 mps 760 mmHg 58%
    06:00 +21°C° 0.1 mm 4 mps 760 mmHg 59%
    07:00 +23°C° 0 mm 4 mps 760 mmHg 54%
    08:00 +25°C° 0 mm 4 mps 761 mmHg 48%
    09:00 +26°C° 0 mm 3 mps 761 mmHg 42%
    10:00 +26°C° 0 mm 3 mps 761 mmHg 39%
    11:00 +27°C° 0 mm 3 mps 760 mmHg 36%
    12:00 +28°C° 0 mm 3 mps 760 mmHg 33%
    13:00 +28°C° 0 mm 4 mps 760 mmHg 33%
    14:00 +28°C° 0 mm 4 mps 759 mmHg 32%
    15:00 +28°C° 0 mm 4 mps 759 mmHg 32%
    16:00 +27°C° 0 mm 4 mps 759 mmHg 35%
    17:00 +27°C° 0 mm 3 mps 759 mmHg 38%
    18:00 +26°C° 0 mm 3 mps 759 mmHg 41%
    19:00 +25°C° 0 mm 3 mps 760 mmHg 41%
    20:00 +25°C° 0 mm 2 mps 760 mmHg 42%
    21:00 +25°C° 0 mm 2 mps 760 mmHg 42%
    22:00 +25°C° 0 mm 3 mps 760 mmHg 43%
    23:00 +25°C° 0 mm 5 mps 760 mmHg 44%

    Tomorrow, 23 March, Saturday

    Time Temperature Precipitation Wind Pressure Humidity
    00:00 +23°C° 0 mm 6 mps 759 mmHg 45%
    01:00 +23°C° 0 mm 6 mps 759 mmHg 48%
    02:00 +23°C° 0 mm 5 mps 759 mmHg 52%
    03:00 +22°C° 0 mm 5 mps 759 mmHg 56%
    04:00 +22°C° 0 mm 5 mps 759 mmHg 57%
    05:00 +22°C° 0 mm 5 mps 759 mmHg 58%
    06:00 +22°C° 0 mm 5 mps 759 mmHg 60%
    07:00 +23°C° 0 mm 5 mps 760 mmHg 55%
    08:00 +25°C° 0 mm 5 mps 760 mmHg 50%
    09:00 +26°C° 0 mm 5 mps 760 mmHg 45%
    10:00 +27°C° 0 mm 5 mps 760 mmHg 43%
    11:00 +28°C° 0 mm 5 mps 760 mmHg 41%
    12:00 +29°C° 0 mm 4 mps 760 mmHg 39%
    13:00 +29°C° 0 mm 5 mps 759 mmHg 40%
    14:00 +29°C° 0 mm 5 mps 758 mmHg 42%
    15:00 +29°C° 0 mm 5 mps 758 mmHg 44%
    16:00 +28°C° 0 mm 5 mps 758 mmHg 48%
    17:00 +27°C° 0 mm 5 mps 758 mmHg 53%
    18:00 +26°C° 0 mm 5 mps 757 mmHg 57%
    19:00 +26°C° 0 mm 5 mps 758 mmHg 59%
    20:00 +25°C° 0 mm 4 mps 758 mmHg 62%
    21:00 +25°C° 0 mm 4 mps 759 mmHg 64%
    22:00 +25°C° 0 mm 4 mps 758 mmHg 65%
    23:00 +23°C° 0 mm 4 mps 758 mmHg 66%

    Day after tomorrow, 24 March, Sunday

    Time Temperature Precipitation Wind Pressure Humidity
    00:00 +23°C° 0 mm 4 mps 757 mmHg 67%
    01:00 +24°C° 0 mm 3 mps 757 mmHg 68%
    02:00 +24°C° 0 mm 3 mps 757 mmHg 69%
    03:00 +24°C° 0 mm 3 mps 756 mmHg 70%
    04:00 +22°C° 0 mm 3 mps 756 mmHg 72%
    05:00 +22°C° 0 mm 4 mps 756 mmHg 75%
    06:00 +22°C° 0 mm 5 mps 757 mmHg 77%
    07:00 +23°C° 0 mm 5 mps 757 mmHg 74%
    08:00 +25°C° 0 mm 5 mps 757 mmHg 70%
    09:00 +25°C° 0 mm 5 mps 758 mmHg 67%
    10:00 +26°C° 0 mm 5 mps 757 mmHg 64%
    11:00 +27°C° 0 mm 4 mps 757 mmHg 61%
    12:00 +28°C° 0 mm 4 mps 756 mmHg 58%
    13:00 +28°C° 0 mm 5 mps 755 mmHg 56%
    14:00 +29°C° 0 mm 6 mps 755 mmHg 55%
    15:00 +29°C° 0 mm 7 mps 754 mmHg 53%
    16:00 +29°C° 0 mm 7 mps 754 mmHg 56%
    17:00 +28°C° 0 mm 7 mps 754 mmHg 59%
    18:00 +27°C° 0 mm 7 mps 754 mmHg 62%
    19:00 +27°C° 0 mm 7 mps 754 mmHg 64%
    20:00 +26°C° 0 mm 7 mps 755 mmHg 65%
    21:00 +26°C° 0 mm 7 mps 755 mmHg 67%
    22:00 +24°C° 0 mm 8 mps 755 mmHg 67%
    23:00 +24°C° 0 mm 8 mps 754 mmHg 68%

    25 March, Monday

    Time Temperature Precipitation Wind Pressure Humidity
    00:00 +24°C° 0 mm 9 mps 754 mmHg 68%
    01:00 +24°C° 0 mm 9 mps 754 mmHg 70%
    02:00 +23°C° 0 mm 10 mps 753 mmHg 71%
    03:00 +23°C° 0 mm 10 mps 753 mmHg 72%
    04:00 +23°C° 0 mm 10 mps 753 mmHg 74%
    05:00 +23°C° 0 mm 10 mps 753 mmHg 75%
    06:00 +23°C° 0 mm 10 mps 753 mmHg 76%
    07:00 +26°C° 0 mm 10 mps 753 mmHg 69%
    08:00 +27°C° 0 mm 10 mps 753 mmHg 62%
    09:00 +28°C° 0 mm 10 mps 753 mmHg 55%
    10:00 +31°C° 0 mm 9 mps 753 mmHg 46%
    11:00 +33°C° 0 mm 8 mps 752 mmHg 36%
    12:00 +35°C° 0 mm 7 mps 752 mmHg 27%
    13:00 +36°C° 0 mm 7 mps 751 mmHg 26%
    14:00 +36°C° 0 mm 7 mps 751 mmHg 25%
    15:00 +38°C° 0 mm 7 mps 750 mmHg 24%
    16:00 +35°C° 0.1 mm 8 mps 750 mmHg 28%
    17:00 +33°C° 0.1 mm 8 mps 750 mmHg 33%
    18:00 +32°C° 0.1 mm 8 mps 750 mmHg 37%
    19:00 +31°C° 0.1 mm 8 mps 751 mmHg 42%
    20:00 +29°C° 0.1 mm 8 mps 752 mmHg 47%
    21:00 +28°C° 0.1 mm 7 mps 752 mmHg 52%
    22:00 +27°C° 0.1 mm 7 mps 752 mmHg 56%
    23:00 +27°C° 0.1 mm 7 mps 752 mmHg 59%

    26 March, Tuesday

    Time Temperature Precipitation Wind Pressure Humidity
    00:00 +27°C° 0.1 mm 6 mps 752 mmHg 62%
    01:00 +27°C° 0 mm 6 mps 752 mmHg 60%
    02:00 +27°C° 0 mm 6 mps 752 mmHg 58%
    03:00 +27°C° 0 mm 6 mps 751 mmHg 55%
    04:00 +27°C° 0 mm 6 mps 752 mmHg 56%
    05:00 +26°C° 0 mm 6 mps 752 mmHg 57%
    06:00 +26°C° 0 mm 6 mps 753 mmHg 58%
    07:00 +27°C° 0 mm 5 mps 753 mmHg 54%
    08:00 +28°C° 0 mm 4 mps 754 mmHg 50%
    09:00 +28°C° 0 mm 3 mps 754 mmHg 46%
    10:00 +29°C° 0 mm 3 mps 754 mmHg 43%
    11:00 +31°C° 0 mm 3 mps 755 mmHg 40%
    12:00 +33°C° 0 mm 3 mps 755 mmHg 37%
    13:00 +33°C° 0 mm 4 mps 755 mmHg 30%
    14:00 +34°C° 0 mm 5 mps 755 mmHg 22%
    15:00 +35°C° 0 mm 6 mps 755 mmHg 15%
    16:00 +32°C° 0 mm 8 mps 756 mmHg 28%
    17:00 +27°C° 0 mm 9 mps 757 mmHg 41%
    18:00 +23°C° 0 mm 11 mps 758 mmHg 54%
    19:00 +23°C° 0 mm 10 mps 759 mmHg 52%
    20:00 +23°C° 0 mm 9 mps 760 mmHg 51%
    21:00 +23°C° 0 mm 8 mps 761 mmHg 50%
    22:00 +23°C° 0 mm 7 mps 761 mmHg 50%
    23:00 +23°C° 0 mm 7 mps 761 mmHg 50%

    27 March, Wednesday

    Time Temperature Precipitation Wind Pressure Humidity
    00:00 +22°C° 0 mm 6 mps 761 mmHg 50%
    01:00 +22°C° 0 mm 7 mps 761 mmHg 50%
    02:00 +22°C° 0 mm 7 mps 760 mmHg 50%
    03:00 +22°C° 0 mm 7 mps 760 mmHg 50%
    04:00 +22°C° 0 mm 7 mps 761 mmHg 49%
    05:00 +22°C° 0 mm 7 mps 761 mmHg 47%
    06:00 +22°C° 0 mm 8 mps 761 mmHg 46%
    07:00 +23°C° 0 mm 6 mps 762 mmHg 41%
    08:00 +25°C° 0 mm 5 mps 762 mmHg 37%
    09:00 +25°C° 0 mm 3 mps 762 mmHg 32%
    10:00 +26°C° 0 mm 4 mps 762 mmHg 30%
    11:00 +26°C° 0 mm 5 mps 762 mmHg 27%
    12:00 +27°C° 0 mm 5 mps 762 mmHg 25%
    13:00 +27°C° 0 mm 5 mps 761 mmHg 26%
    14:00 +27°C° 0 mm 5 mps 761 mmHg 27%
    15:00 +26°C° 0 mm 5 mps 761 mmHg 28%
    16:00 +26°C° 0 mm 4 mps 761 mmHg 32%
    17:00 +25°C° 0 mm 4 mps 761 mmHg 37%
    18:00 +23°C° 0 mm 4 mps 762 mmHg 42%
    19:00 +23°C° 0 mm 4 mps 762 mmHg 42%
    20:00 +24°C° 0 mm 3 mps 762 mmHg 43%
    21:00 +24°C° 0 mm 3 mps 763 mmHg 44%
    22:00 +24°C° 0 mm 3 mps 762 mmHg 46%
    23:00 +22°C° 0 mm 3 mps 762 mmHg 49%
    Show more